BMCB-19 Weather Reports


time (UTC)temp
C
wind
direction
speed
KPH
gust
KPH
rain 1hr
cm
rain 24hr
cm
rain mn
cm
humidity
%
barometer
mb
20260902014527 11 0 0.0 0.0 0.00 0.00 0.00 90 1022.7
20260902012527 11 0 0.0 0.0 0.00 0.00 0.00 91 1022.8
20260902011528 11 0 0.0 0.0 0.00 0.00 0.00 91 1022.7
20260902005530 11 0 0.0 0.0 0.00 0.00 0.00 91 1022.9
20260902004530 11 0 0.0 0.0 0.00 0.00 0.00 91 1022.9
20260902003529 11 0 0.0 0.0 0.00 0.00 0.00 91 1023.0
20260902002530 11 0 0.0 0.0 0.00 0.00 0.00 90 1022.9
20260902001530 11 0 0.0 0.0 0.00 0.00 0.00 90 1022.9
20260902000540 11 0 0.0 0.0 0.00 0.00 0.00 89 1022.9
20260901235540 11 0 0.0 0.0 0.00 0.00 0.00 89 1022.9
20260901234543 11 0 0.0 0.0 0.00 0.00 0.00 89 1022.8
20260901233543 11 0 0.0 0.0 0.00 0.00 0.00 89 1022.8
20260901232542 11 0 0.0 0.0 0.00 0.00 0.00 88 1022.9
20260901231543 12 0 0.0 0.0 0.00 0.00 0.00 87 1022.9
20260901230545 12 0 0.0 0.0 0.00 0.00 0.00 86 1023.0
20260901224541 12 0 0.0 0.0 0.00 0.00 0.00 87 1023.0
20260901223541 12 0 0.0 0.0 0.00 0.00 0.00 86 1023.1
20260901222537 12 0 0.0 0.0 0.00 0.00 0.00 86 1023.1
20260901221539 12 0 0.0 0.0 0.00 0.00 0.00 85 1023.1
20260901220539 12 0 0.0 0.0 0.00 0.00 0.00 84 1023.1
20260901214539 13 0 0.0 0.0 0.00 0.00 0.00 83 1023.0
20260901213537 14 0 0.0 0.0 0.00 0.00 0.00 80 1023.0
20260901212539 15 0 0.0 0.0 0.00 0.00 0.00 79 1023.1
20260901210536 15 0 0.0 0.0 0.00 0.00 0.00 77 1023.1
20260901205534 15 0 0.0 0.0 0.00 0.00 0.00 76 1023.1
20260901204538 15 0 0.0 0.0 0.00 0.00 0.00 76 1023.0
20260901203536 15 0 0.0 0.0 0.00 0.00 0.00 76 1023.0
20260901202536 15 0 0.0 0.0 0.00 0.00 0.00 76 1022.9
20260901200537 15 0 0.0 0.0 0.00 0.00 0.00 75 1022.9
20260901192532 13 0 0.0 0.0 0.00 0.00 0.00 80 1022.7
20260901191532 13 0 0.0 0.0 0.00 0.00 0.00 79 1022.6
20260901190532 14 0 0.0 0.0 0.00 0.00 0.00 78 1022.7
20260901185531 14 0 0.0 0.0 0.00 0.00 0.00 76 1022.6
20260901184532 15 0 0.0 0.0 0.00 0.00 0.00 75 1022.5
20260901181531 16 0 0.0 0.0 0.00 0.00 0.00 69 1022.2
20260901180530 17 0 0.0 0.0 0.00 0.00 0.00 65 1022.2
20260901175531 17 0 0.0 0.0 0.00 0.00 0.00 63 1022.1
20260901174530 18 0 0.0 0.0 0.00 0.00 0.00 61 1022.1
20260901172531 18 0 0.0 0.0 0.00 0.00 0.00 61 1022.1
20260901171531 18 0 0.0 0.0 0.00 0.00 0.00 60 1022.0
20260901165531 20 0 0.0 0.0 0.00 0.00 0.00 58 1021.8
20260901164530 20 0 0.0 0.0 0.00 0.00 0.00 58 1021.7
20260901163529 20 0 0.0 0.0 0.00 0.00 0.00 58 1021.7
20260901162530 20 0 0.0 0.0 0.00 0.00 0.00 59 1021.7
20260901161529 20 0 0.0 0.0 0.00 0.00 0.00 58 1021.8
20260901160529 20 0 0.0 0.0 0.00 0.00 0.00 56 1021.6
20260901155528 20 0 0.0 0.0 0.00 0.00 0.00 56 1021.7
20260901154530 20 0 0.0 0.0 0.00 0.00 0.00 58 1021.8
20260901153529 20 0 0.0 0.0 0.00 0.00 0.00 56 1021.7
20260901152529 20 0 0.0 0.0 0.00 0.00 0.00 55 1021.7
20260901151529 20 0 0.0 0.0 0.00 0.00 0.00 55 1021.7
20260901145529 20 0 0.0 0.0 0.00 0.00 0.00 55 1021.7
20260901144529 21 0 0.0 0.0 0.00 0.00 0.00 55 1021.7
20260901143531 21 0 0.0 0.0 0.00 0.00 0.00 57 1021.6
20260901142529 21 0 0.0 0.0 0.00 0.00 0.00 56 1021.7
20260901141529 21 0 0.0 0.0 0.00 0.00 0.00 56 1021.7
20260901140529 21 0 0.0 0.0 0.00 0.13 0.00 56 1021.7
20260901135529 20 0 0.0 0.0 0.00 0.15 0.00 56 1021.8
20260901134529 20 0 0.0 0.0 0.00 0.18 0.00 57 1021.8
20260901133529 20 0 0.0 0.0 0.00 0.18 0.00 59 1021.8
20260901132530 20 0 0.0 0.0 0.00 0.18 0.00 60 1022.0
20260901131529 20 0 0.0 0.0 0.00 0.18 0.00 59 1021.9
20260901130529 21 0 0.0 0.0 0.00 0.18 0.00 60 1022.0
20260901125529 21 0 0.0 0.0 0.00 0.18 0.00 60 1022.1
20260901124532 20 0 0.0 0.0 0.00 0.18 0.00 62 1022.1
20260901123529 20 0 0.0 0.0 0.00 0.18 0.00 63 1022.0
20260901122529 20 0 0.0 0.0 0.00 0.30 0.00 64 1022.1
20260901121529 20 0 0.0 0.0 0.00 0.36 0.00 64 1022.2
20260901120529 20 0 0.0 0.0 0.00 0.41 0.00 65 1022.1
20260901114529 20 0 0.0 0.0 0.00 0.41 0.00 65 1022.0
20260901113529 21 0 0.0 0.0 0.00 0.41 0.00 64 1021.9
20260901112529 20 0 0.0 0.0 0.00 0.41 0.00 65 1022.0
20260901111529 20 0 0.0 0.0 0.00 0.41 0.00 67 1022.2
20260901105529 18 0 0.0 0.0 0.00 0.41 0.00 70 1022.3
20260901104528 19 0 0.0 0.0 0.00 0.41 0.00 71 1022.3
20260901103532 20 0 0.0 0.0 0.00 0.41 0.00 69 1022.1
20260901102529 18 0 0.0 0.0 0.00 0.41 0.00 72 1022.2
20260901100529 18 0 0.0 0.0 0.00 0.41 0.00 74 1022.4
20260901095529 18 0 0.0 0.0 0.00 0.41 0.00 75 1022.4
20260901094529 18 0 0.0 0.0 0.00 0.41 0.00 74 1022.3
20260901093529 17 0 0.0 0.0 0.00 0.41 0.00 76 1022.3
20260901092530 17 0 0.0 0.0 0.00 0.41 0.00 79 1022.3
20260901091529 17 0 0.0 0.0 0.00 0.41 0.00 81 1022.3
20260901090529 17 0 0.0 0.0 0.00 0.41 0.00 82 1022.3
20260901084531 17 0 0.0 0.0 0.00 0.41 0.00 82 1022.2
20260901083529 17 0 0.0 0.0 0.00 0.41 0.00 82 1022.0
20260901082529 17 0 0.0 0.0 0.00 0.41 0.00 82 1021.9
20260901081529 17 0 0.0 0.0 0.00 0.41 0.00 83 1021.9
20260901080529 17 0 0.0 0.0 0.00 0.41 0.00 83 1021.9
20260901075529 16 0 0.0 0.0 0.00 0.41 0.00 85 1021.8
20260901074530 16 0 0.0 0.0 0.00 0.41 0.00 86 1021.8
20260901073529 15 0 0.0 0.0 0.00 0.41 0.00 87 1021.7
20260901072529 15 0 0.0 0.0 0.00 0.41 0.00 88 1021.7
20260901071532 15 0 0.0 0.0 0.00 0.41 0.00 88 1021.7
20260901070529 15 0 0.0 0.0 0.00 0.41 0.00 89 1021.6
20260901065530 15 0 0.0 0.0 0.00 0.41 0.00 89 1021.7
20260901064530 15 0 0.0 0.0 0.00 0.41 0.00 90 1021.6
20260901063531 15 0 0.0 0.0 0.00 0.41 0.00 90 1021.6
20260901061530 15 0 0.0 0.0 0.00 0.41 0.00 91 1021.5
20260901060530 14 0 0.0 0.0 0.00 0.41 0.00 92 1021.5
20260901055530 14 0 0.0 0.0 0.00 0.41 0.00 92 1021.4
20260901054529 13 0 0.0 0.0 0.00 0.41 0.00 92 1021.4
20260901052530 13 0 0.0 0.0 0.00 0.41 0.00 92 1021.2
20260901051530 14 0 0.0 0.0 0.00 0.41 0.00 92 1021.1
20260901045530 14 0 0.0 0.0 0.00 0.41 0.00 92 1021.1
20260901044530 14 0 0.0 0.0 0.00 0.41 0.00 92 1021.1
20260901043530 14 0 0.0 0.0 0.00 0.41 0.00 92 1021.0
20260901041530 13 0 0.0 0.0 0.00 0.41 0.00 92 1020.9
20260901040529 13 0 0.0 0.0 0.00 0.41 0.00 92 1020.9
20260901034530 13 0 0.0 0.0 0.00 0.41 0.00 91 1020.7
20260901033530 13 0 0.0 0.0 0.00 0.41 0.00 91 1020.7
20260901032530 13 0 0.0 0.0 0.00 0.41 0.00 91 1020.6
20260901031530 13 0 0.0 0.0 0.00 0.41 0.00 91 1020.6
20260901030530 13 0 0.0 0.0 0.00 0.41 0.00 91 1020.6
20260901025533 13 0 0.0 0.0 0.00 0.41 0.00 91 1020.6
20260901024530 13 0 0.0 0.0 0.00 0.41 0.00 91 1020.6
20260901023530 13 0 0.0 0.0 0.00 0.41 0.00 91 1020.7
20260901022530 13 0 0.0 0.0 0.00 0.41 0.00 91 1020.7
20260901021530 13 0 0.0 0.0 0.00 0.41 0.00 91 1020.7
20260901020530 13 0 0.0 0.0 0.00 0.41 0.00 91 1020.6
20260901015530 13 0 0.0 0.0 0.00 0.41 0.00 91 1020.7